Race Results for
DNA Cycles Estrella Hedgehog Hustle
Goodyear, AZ
(Event Information)
Cross Country on 02/05/2011

Note: Ranking points are NOT upgrade points. An explanation of ranking points can be found here.


Men - Cat 1/2/3 - Rock Crusher

 Place Points NameCity, StateTime USAC #BibTeam
1540.00Keith Wilson   Tempe, AZ1:47:45 220715  623 BICYCLEWORLD.TV
2Terry Sontag   1:53:31  222 
3Ryan Tiffin   2:02:15  258 
4Joey Daigeault   2:16:56  626 

Men - Cat 1/2/3 - Single Speed

 Place Points NameCity, StateTime USAC #BibTeam
1Shawn Gregory   2:04:13  652 
2Aaron Prudler   2:09:41  655 DAWN TO DUST RACING / SUN 'N SPOKES
3560.00Michael Haas   Glendale, AZ2:11:19 111857  653 TEAM EXHALE
4570.00C Kevin Utley   Oro Valley, AZ2:24:05 68673  657 TEAM OVB
5580.00Randy Harris   Tucson, AZ2:25:24 265192  654 TEAM OVB
6Jonathon Bird   2:34:23  650 ABSOLUTE BIKES

Men - Cat 3 - Junior - 15-18

 Place Points NameCity, StateTime USAC #BibTeam
1Logan Collett   53:30  365 
2548.33Devin Eldridge   Mesa, AZ54:49 334290  368 DNA CYCLES
3Dilyn Sheber   57:41  475 TEAM OVB
4Nick Nation   1:01:57  371 
5Max Wason   1:02:00  413 
6Justin Verhaagen   1:10:05  375 
7Josh Henny   2:04:00  369 

Men - Cat 3 - Senior - 19-29

 Place Points NameCity, StateTime USAC #BibTeam
1Chris Chapman   56:24  377 
2Brian Woodruff   57:37  487 
3Matthew Wilkins   1:21:24  381 ARKANSAS TECH UNIVERSITY

Men - Cat 3 - Master - 30-39

 Place Points NameCity, StateTime USAC #BibTeam
1Paul Harwood   55:32  388 
2Lance Carlson   57:08  485 
3James Bliss   57:10  384 TEAM EXHALE
4553.65Chad Blasi   Tucson, AZ59:05 334080  496 BLASI RACING
5Aaron Browning   59:09  386 SWISS AMERICAN-JOBBING.COM
6Lomax Boyd   59:58  385 
7Bryan Thera   1:02:14  396 
8Jerry Baker   1:04:18  382 
9John Maciulla   1:09:02  390 
10David Shanstrom   1:12:51  395 MARTIAL ARTS OF TUCSON/GIANT
11Ward Tyczka   1:41:39  397 
12Patrick Wallace   1:46:46  417 

Men - Cat 3 - Master - 40-49

 Place Points NameCity, StateTime USAC #BibTeam
1540.00Robert Evans   Chandler, AZ52:00 252668  484 FOCUS RACING
2Brian Tallmadge   53:00  509 
3Joe Pfyffer   57:04  416 
4Brent VanDeman   57:33  418 
5Shawn Bolduc   57:35  399 BICYCLEWORLD.TV
6Christopher Peters   57:57  503 
7Scott Foreman   59:41  498 
8569.19Derek Rich   Phoenix, AZ1:01:43 307417  505 LANDIS MOUNTAIN BIKE
9Brian Comstock   1:04:44  478 
10Gary Stone   1:06:03  412 
11Gary Sheber   1:06:55  508 
12John Peckardt   1:14:27  910 
13Dennis Low   1:31:04  408 

Men - Cat 3 - Master - 50-99

 Place Points NameCity, StateTime USAC #BibTeam
1538.81mike sanchez   Phoenix, AZ57:29 305142  520 
2Steve Barron   59:03  513 
3551.61Scott Hembree   Chandler, AZ1:01:21 200863  517 GLOBAL BIKES
4558.01Dino D'Romero   Gilbert, AZ1:02:41 271477  515 GLOBAL BIKES
5Andrew Meyer   1:06:20  519 
6570.81Ed Baker   Gilbert, AZ1:14:04 318292  512 GLOBAL BIKES
7Tim Spicer   1:17:58  521 TRIBE
8Kirk Fleming   1:21:47  497 
9Kevin Kent   1:41:01  414 

Men - Cat 2/3 - Single Speed

 Place Points NameCity, StateTime USAC #BibTeam
1540.00Carlyle Naylor (1 - Cat3)   Mesamesa, AZ1:38:27 333976  662 DNA CYCLES
2Greg Schultejann   1:39:13  663 
3John Conyer   1:39:39  659 OLD PUEBLO GYMNASTICS
4Nathan Cain   1:41:10  677 ABSOLUTE BIKES
5Cody Kukulski   1:46:23  661 
6Christopher Coffey   1:54:42  658 ABSOLUTE BIKES
7Paul Pena   1:59:25  709 
8Davis McNeil   2:00:47  280 

Men - Cat 2 - Junior - 15-18

 Place Points NameCity, StateTime USAC #BibTeam
1Cal Skilsky   1:36:33  162 TEAM OVB
2481.32Garrett Chott   Gilbert, AZ1:42:51 286463  271 TWO WHEEL JONES
3Nick Thomas   1:53:42  163 
4Adam Humphrey   1:54:37  158 TEAM EXHALE
5Ian Turner   2:03:09  165 OLD PUEBLO GYMNASTICS
6Conner Dalton   2:05:52  367 
DNFAdam King   DNF  275 

Men - Cat 2 - Senior - 19-29

 Place Points NameCity, StateTime USAC #BibTeam
1Channing Morrison   1:36:44  249 ADVENTURE BICYCLE CO.
2Bradley Oneal   1:37:17  247 
3565.00Craig Gregory   Mesa, AZ1:44:31 356352  166 
4John Ross Peckardt   1:51:03  169 TEAM EXHALE
5Eric Martins   2:10:18  168 
DNFNick Key   DNF  281 

Men - Cat 2 - Master - 30-39

 Place Points NameCity, StateTime USAC #BibTeam
1Terry Schmidtkrecht   1:36:50  185 
2543.85Micah Clinger   Flagstaff, AZ1:38:06 103304  175 
3Brian Murphy   1:38:41  181 MISSING LINK RACING
4551.55Ashley Oelschlaeger   El Mirage, AZ1:42:01 198113  183 
5Ryan Mortensen   1:42:29  180 FCA ENDURANCE
6Jeff Shaffer   1:43:22  186 FCA ENDURANCE
7Matt Long   1:43:52  277 
8Mike Ciasca   1:44:12  174 OLD PUEBLO GYMNASTICS
9570.80George Hackett   Phoenix, AZ1:46:21 365744  273 MISSING LINK RACING
10Jason Ransdell   1:46:29  393 
11Brett Cadiente   1:46:47  172 ADVENTURE BICYCLE CO.
12582.35Dan Coley   Chandler, AZ1:47:00 88523  176 SOUTH MOUNTAIN CYCLES
13Julius Charlie   1:47:48  173 
14590.05David DeNitto   Phoenix, AZ1:53:29 257745  256 DNA CYCLES

Men - Cat 2 - Master - 40-49

 Place Points NameCity, StateTime USAC #BibTeam
1490.03Jim Chott   Gilbert, AZ1:38:25 286462  272 TWO WHEEL JONES
2494.79Michael Hanson   Gilbert, AZ1:38:42 168528  254 MISSING LINK RACING
3499.55Jeff Hallums   Phoenix, AZ1:40:37 332368  282 
4Bill Morris   1:41:06  257 
5509.07Duane Heinrichs   Mesa, AZ1:41:32 304153  198 
6513.83Dean Henthorn   Scottsdale, AZ1:43:35 234438  199 BICYCLEWORLD.TV
7Brett Laycock   1:43:38  276 BICYCLEWORLD.TV
8Tom Grace   1:45:20  196 
9George Sperry   1:45:45  212 SWISS AMERICAN-JOBBING.COM
10Keith Hubbard   1:46:25  200 TEAM OVB
11Steve Lovejoy   1:48:12  248 TEAM EXHALE
12Alex Romero   1:48:43  210 
13Pret Wongmanee   1:49:45  215 
14551.91David Nicholls   Cave Creek, AZ1:51:17 296085  409 
15556.67Kurt Mindy   Anthem, AZ1:52:40 166882  205 SWISS AMERICAN-JOBBING.COM
16Jeff Plant   1:53:28  209 
17Guy Bell   1:55:00  192 MISSING LINK RACING
18Tom Haffner   1:57:45  274 SUNDAY CYCLES
19Brian Willess   1:58:48  278 GLOBAL BIKES
20580.47Chris Sullivan   Huachuca, AZ2:05:03 85707  214 DAWN TO DUST RACING
21Danny Aleman   2:12:16  190 FCA ENDURANCE
22589.99Ken Segel   Phoenix, AZ2:28:26 265120  211 MISSING LINK RACING
DNFRobert Kelsey   Sierra Vista, AZDNF 333174  201 DAWN TO DUST RACING

Men - Cat 2 - Master - 50-99

 Place Points NameCity, StateTime USAC #BibTeam
1450.43Charles Bruni   Flagstaff, AZ1:37:59 288078  216 ABSOLUTE BIKES
2Ron Kropen   1:53:18  264 TEAM EXHALE
3Dale Agar   1:55:26  283 
4516.01Kevin Quigley   Flagstaff, AZ1:56:44 175298  220 
5David Lemon   1:57:02  218 
6Pete Rogan   2:01:37  221 MISSING LINK RACING
7Robert Dorney   2:25:38  241 

Men - Cat 1 - Junior - 15-18

 Place Points NameCity, StateTime USAC #BibTeam
1Ryan Geiger   Flagstaff, AZ1:53:37 258285  40 AZ DEVO

Men - Cat 1 - Senior - 19-29

 Place Points NameCity, StateTime USAC #BibTeam
1438.15Zack Heim   Tempe, AZ1:52:43 195290  42 BICYCLEWORLD.TV
2514.08Jason Hall   Gilbert, AZ1:58:08 296591  41 TEAM EXHALE
3590.01Nate Rees   Apache Jct, AZ2:27:24 287405  44 TWO WHEEL JONES

Men - Cat 1 - Master - 30-39

 Place Points NameCity, StateTime USAC #BibTeam
1507.40Brad Johnson   Flagstaff, AZ1:54:40 102931  52 BICYCLE RANCH
2514.94Ryan Waldron   Phoenix, AZ1:58:59 36946  97 BICYCLEWORLD.TV
3522.48Jeff Garmany   Tucson, AZ1:59:25 305033  51 OLD PUEBLO GYMNASTICS
4530.02Jason Downing   Phoenix, AZ2:00:59 324612  49 
5537.56Colby Moeller   Tucson, AZ2:03:01 132047  55 OLD PUEBLO GYMNASTICS
6545.10Don Eldridge   Mesa, AZ2:03:24 157555  50 DNA CYCLES
7552.64Josh Robertson   Phoenix, AZ2:04:52 30139  56 
8560.18Charles Singleton   Mesa, AZ2:17:38 32798  57 WORLDMOTORS.NET
9Sean Kennedy   2:30:31  53 

Men - Cat 1 - Master - 40-49

 Place Points NameCity, StateTime USAC #BibTeam
1380.89Eric Lynch   Phoenix, AZ1:57:45 263726  65 
2404.45Daryll McKenzie   Marana, AZ1:58:53 138171  66 TEAM OVB
3428.01Darrin Permenter   Glendale, AZ2:00:36 236670  99 AZ DEVO
4451.57Kenneth Koch   Dewey, AZ2:04:21 255654  61 ABSOLUTE BIKES
5James LaBerche   2:10:03  93 
6498.69Corey Coplea   Flagstaff, AZ2:12:00 181879  96 ABSOLUTE BIKES
7522.25Greg Rogers   Gilbert, AZ2:13:23 165662  67 CARLOS OBRIENS RACING
8545.81Carlos Zamora   Phoenix, AZ2:15:10 52255  69 SWISS AMERICAN-JOBBING.COM
9569.37Greg Carmichael   Phoenix, AZ2:17:09 6175  60 TEAM EXHALE

Men - Cat 1 - Master - 50-99

 Place Points NameCity, StateTime USAC #BibTeam
1439.97Arthur MacFarland   Cave Creek, AZ2:00:33 79108  74 BICYCLEWORLD.TV
2Dan Mills   2:08:50  90 
3511.09Chris Grove   Flagstaff, AZ2:09:34 14295  71 ABSOLUTE BIKES
4546.65Alexander Koss   Flagstaff, AZ2:14:27 236463  73 ABSOLUTE BIKES
5582.21Michael Whitehead   Scottsdale, AZ2:21:49 289036  77 BICYCLEWORLD.TV
DQKeith Tomei   Tucson, AZDQ 40955  76 

Men - Pro

 Place Points NameCity, StateTime USAC #BibTeam
1437.00Domenico Futia   Maple Valley, WA2:18:44 176687  SWISS AMERICAN-JOBBING.COM
2488.00Brad Wilhelm   Maricopa, AZ2:20:38 213645  10 
3John Sawasky   2:20:56  
4Christopher Hull   2:45:00  

Men - Master - 60-99

 Place Points NameCity, StateTime USAC #BibTeam
1501.32Stephen Hughes   Scottsdale, AZ1:43:03 141111  242 BICYCLEWORLD.TV
2Bruce Wacker   1:53:33  260 
3526.66Frank Loftus   Glendale, AZ2:00:42 85413  243 SWISS AMERICAN-JOBBING.COM
4Jim Cox   2:01:42  240 SWISS AMERICAN-JOBBING.COM
5Bob Mcdermott   2:04:17  244 SWISS AMERICAN-JOBBING.COM
6Larry Moatts   2:11:57  493 
7Douglas Brown   2:18:07  279 
8David Jordan   2:43:27  250 
DNFDavid Lash   DNF  266 

Men - Junior

 Place Points NameCity, StateTime USAC #BibTeam
1Nick Neuberger   34:41  358 ABSOLUTE BIKES
2Alex zamora   Phoenix, AZ35:25 335594  359 SWISS AMERICAN-JOBBING.COM

Men - Junior - 13-14

 Place Points NameCity, StateTime USAC #BibTeam
1Drake Sheber   44:24  364 TEAM OVB
2Jonah Ivy   44:41  410 
3Beau Munger   49:50  362 
4Wes Grove   55:33  415 
5Chase Foster   55:34  360 FCA ENDURANCE
6Gage Landers   1:08:21  361 

Women - Cat 1/2/3 - Rock Crusher

 Place Points NameCity, StateTime USAC #BibTeam
1Cheryl Ekstrom   Tucson, AZ59:49 142179  624 GIANT FOR WOMEN

Women - Cat 1/2/3 - Single Speed

 Place Points NameCity, StateTime USAC #BibTeam
1Laura Bullock   2:38:13  669 
2Tina Ooley   2:45:05  665 

Women - Cat 3 - Senior - 19-29

 Place Points NameCity, StateTime USAC #BibTeam
1Anna Trader   54:04  529 MISSING LINK RACING
2Amy Junion   59:49  473 

Women - Cat 3 - Master - 30-39

 Place Points NameCity, StateTime USAC #BibTeam
1Jessie Turner   47:56  533 TEAM EXHALE
2Talia Lavor   52:41  468 

Women - Cat 3 - Master - 40-99

 Place Points NameCity, StateTime USAC #BibTeam
1Charlayne Barger   Chandler, AZ46:37 195195  535 GLOBAL BIKES
2Zoe Cohen   Tucson, AZ56:45 236915  537 GIANT FOR WOMEN

Women - Cat 2 - Junior - 15-18

 Place Points NameCity, StateTime USAC #BibTeam
1Kyia Lively   3:14:17  223 

Women - Cat 2 - Senior - 19-29

 Place Points NameCity, StateTime USAC #BibTeam
1Mavis Cooper   1:30:48  224 ABSOLUTE BIKES
2565.00leah mccabe   Flagstaff, AZ1:40:08 344578  225 ABSOLUTE BIKES
3590.00stephanie jones   Littleton, CO1:43:19 335812  290 

Women - Cat 2 - Master - 30-39

 Place Points NameCity, StateTime USAC #BibTeam
1Sage Grossi   1:34:55  238 
2Lori Kipp   1:35:35  291 
3Beth Utley   1:40:18  295 
4Hillary Mathis   1:51:18  292 
5Ginger Logan   1:54:52  227 
6Becky Bliss   2:05:33  246 TEAM EXHALE
DNFTonya Pitcher   DNF  229 ABSOLUTE BIKES

Women - Cat 2 - Master - 40-99

 Place Points NameCity, StateTime USAC #BibTeam
1Solange Whitehead   1:38:45  237 BICYCLEWORLD.TV
2547.14Leslie Brady   Glendale, AZ1:41:37 295932  231 Mountain Bike Association of Arizona
3554.28Debbie Hunter   Scottsdale, AZ1:47:07 305458  233 BICYCLE RANCH
4Krista Gibson   1:55:59  289 SUNDAY CYCLES
5Lisa Pivin   2:00:53  293 
6Denise Barron   2:03:05  230 
7Laura Meyer   2:15:32  234 
8589.98Katherine Farago   Mesa, AZ2:26:16 141474  232 ThieleAuto/Industry Bikes

Women - Cat 1 - Junior - 15-18

 Place Points NameCity, StateTime USAC #BibTeam
1Ashley Stilwell   Sierravista, AZ3:20:06 304903  78 GIANT FOR WOMEN

Women - Cat 1 - Master - 30-39

 Place Points NameCity, StateTime USAC #BibTeam
1538.69Christine Jeffrey   Tucson, AZ2:16:52 177715  98 TEEM COLLEEN/FUJI BIKES
2561.12Melissa Liebling   Tucson, AZ2:28:14 331458  82 GIANT FOR WOMEN
3583.55La Kelly   Sedona, AZ2:52:18 298016  87 

Women - Cat 1 - Master - 40-99

 Place Points NameCity, StateTime USAC #BibTeam
1LaJauan Kelley   3:20:19  81 

Women - Pro

 Place Points NameCity, StateTime USAC #BibTeam
1Zephanie Blasi   Vail, AZ2:21:29 156031  30 NOTUBES WOMEN'S ELITE TEAM

Women - Junior

 Place Points NameCity, StateTime USAC #BibTeam
1Mercy Richmann   41:46  470 
2Olivia Nicholls   Cave Creek, AZ42:04 356742  523 

Report missing or incorrect license numbers

Volkswagen
Bonk BreakerShimanoUSACDFSpySierra Nevada
UCI USA Cycling is the official governing body for all disciplines of competitive cycling in the United States. The 501c3, membership-based organization aims both to achieve sustained success in international cycling competition and to grow competitive cycling in America while delivering an exceptional customer experience.
View Children's Online Privacy Protection Policy
US Olympic Committee